Location: Chabot Space and Science Center
(37.8191°N, 122.1819°W)
Time: 14:35:39
(UTC-08:00)

ISS - Pass Details

Date: 05 December 2021
Orbit: 413 x 422 km, 51.6° (Epoch: 20 January)

Event Time Altitude Azimuth Distance (km) Brightness Sun altitude
Rises 18:56:42 0° 307° (NW) 2,379 0.7 -24.5°
Reaches altitude 10° 18:58:49 10° 304° (NW) 1,509 -0.4 -24.9°
Enters shadow 19:00:37 28° 295° (WNW) 817 -1.9 -25.2°
